sat.trackr.live / text

‹ back to catalog

STARLINK-33863

NORAD 63864 · 2025-094A

PAYLOAD ACTIVE UNKNOWN

§ Identity

Operator
Country
US
Launch date
2025-05-10
Launch site
AFWTR
Launch vehicle
Mass (kg)
RCS (m²)

Purposes: comms

External: N2YO · Heavens-Above · Gunter

§ Orbital elements

Epoch: 2026-05-25T03:58:59.024352Z

Period
96.11 min
Inclination
70.0023°
Eccentricity
0.0002681
Mean motion
14.98336947 rev/d
Perigee alt
570.2 km
Apogee alt
573.9 km
Semi-major
6,950.2 km
B*
2.4002e-4
RAAN
41.8389°
Arg perigee
269.5051°
Mean anomaly
90.5801°
Rev number
5,865

§ Raw data

STARLINK-338631 63864U 25094A   26145.16596093  .00002773  00000+0  24002-3 0  99932 63864  70.0023  41.8389 0002681 269.5051  90.5801 14.98336947 58650

JSON: /api/v1/satellites/63864 · /tle

For live sub-satellite position, see the globe view (requires WebGL).

§ Visibility from observer

Set your observer location to see the next 7 days of passes ≥ 10°. The values pass through the URL so the page stays shareable.

No JS? Fill the form by hand. The geolocation button needs JavaScript.